x

8454049 - Quonset Point, Ri (qptr1) Weather Station

9:18 - Wed 27th Aug 2014 All times are EDT. -4 hours from GMT.

  • Wind
    7mph, 9mph gusts
  • Sea Temp 74°f
  • Luft Temp 72°f
  • Sea Pressure 1012.3mb
  • 8454049 - Quonset Point, Ri
  • 8454049 - Quonset Point, Ri

More Historic Weather Station data

Upgrade to MSW Pro to gain access to the past 30 days of data for over 8000 Wavebouys and Weather Stations around the globe.

Join Pro

Comparision Forecast

View Surf forecast
   
Mi 08/27 9:18 7 9 mph 1012.3mb 74f 72f
9:12 9 10 mph 1011.9mb 74f 72f
9:06 9 10 mph 1012mb 74f 72f
9:00 10 13 mph 1011.9mb 74f 72f
8:54 10 11 mph 1012mb 74f 72f
8:48 9 11 mph 1012.2mb 74f 72f
8:42 9 10 mph 1012.2mb 74f 72f
8:36 9 11 mph 1012.2mb 74f 72f
8:30 9 11 mph 1012.1mb 74f 73f
8:24 9 11 mph 1012.1mb 74f 73f
8:18 9 10 mph 1012.1mb 74f 73f
8:12 8 10 mph 1012mb 74f 73f
8:06 8 9 mph 1012mb 74f 73f
7:54 8 10 mph 1011.8mb 74f 73f
7:48 9 10 mph 1011.8mb 74f 73f
7:42 9 13 mph 1011.7mb 74f 73f
7:36 13 14 mph 1011.7mb 74f 74f
7:30 11 14 mph 1011.7mb 74f 74f
7:24 11 13 mph 1011.7mb 74f 74f
7:18 11 14 mph 1011.7mb 74f 74f
7:12 11 14 mph 1011.7mb 74f 74f
7:06 11 14 mph 1011.6mb 74f 74f
7:00 10 13 mph 1011.5mb 74f 74f
6:54 10 14 mph 1011.5mb 74f 75f
6:48 13 14 mph 1011.5mb 74f 75f
6:42 13 14 mph 1011.4mb 74f 75f
6:36 11 14 mph 1011.6mb 74f 75f
6:30 13 14 mph 1011.5mb 74f 76f
6:24 13 15 mph 1011.5mb 74f 76f
6:18 14
mph
1011.4mb 74f 76f
6:12 14 15 mph 1011.4mb 74f 77f
6:06 14 15 mph 1011.5mb 74f 75f
6:00 14 16 mph 1011.5mb 74f 75f
5:54 16 17 mph 1011.5mb 74f 74f
5:48 15 17 mph 1011.5mb 74f 75f
5:42 11 14 mph 1011.5mb 74f 78f
5:36 11 14 mph 1011.5mb 74f 79f
5:30 11 14 mph 1011.5mb 74f 79f
5:24 13 16 mph 1011.5mb 74f 79f
5:18 14 17 mph 1011.6mb 74f 79f
5:12 11 17 mph 1011.7mb 73f 79f
5:06 15 17 mph 1011.8mb 73f 79f
5:00 14 20 mph 1011.8mb 73f 79f
4:54 15 18 mph 1011.8mb 73f 79f
4:48 15 18 mph 1011.9mb 73f 79f
4:42 17 18 mph 1011.9mb 73f 79f
4:36 16 18 mph 1011.9mb 73f 79f
4:30 16 18 mph 1011.9mb 73f 79f
4:24 15 17 mph 1011.9mb 73f 79f
4:18 16 17 mph 1012mb 73f 79f
4:12 15 17 mph 1011.9mb 73f 79f
4:06 16 21 mph 1011.9mb 73f 79f
4:00 16 21 mph 1011.9mb 73f 79f
3:54 17 20 mph 1011.9mb 73f 79f
3:48 15 18 mph 1012mb 73f 79f
3:42 17 20 mph 1012mb 73f 78f
3:36 17 20 mph 1012.1mb 73f 78f
3:30 16 18 mph 1012.1mb 73f 78f
3:12 17 21 mph 1012.3mb 73f 76f
3:06 17 21 mph 1012.4mb 73f 79f
3:00 18 21 mph 1012.4mb 73f 79f
2:54 17 22 mph 1012.6mb 73f 79f
2:48 18 21 mph 1012.6mb 73f 79f
2:42 15 18 mph 1012.6mb 73f 79f
2:36 14 21 mph 1012.8mb 73f 79f
2:30 17 20 mph 1012.8mb 73f 80f
2:24 17 21 mph 1012.8mb 73f 80f
2:18 15 22 mph 1012.8mb 73f 79f
2:12 18 21 mph 1012.9mb 73f 79f
2:06 18 21 mph 1013mb 73f 79f
2:00 15 18 mph 1013.1mb 72f 80f
1:54 16 20 mph 1013.2mb 73f 79f
1:48 17 20 mph 1013.3mb 73f 79f
1:42 17 21 mph 1013.3mb 72f 79f
1:36 16 18 mph 1013.4mb 72f 79f
1:30 14 17 mph 1013.5mb 72f 78f
1:24 16 20 mph 1013.5mb 72f 79f
1:18 14 18 mph 1013.6mb 72f 79f
1:12 13 16 mph 1013.7mb 72f 78f
1:00 14 17 mph 1013.8mb 71f 76f
12:54 17 18 mph 1013.8mb 71f 75f
12:48 13 16 mph 1013.8mb 70f 75f
12:42 16 17 mph 1013.9mb 70f 75f
12:36 14 16 mph 1013.9mb 70f 79f
12:30 13 14 mph 1014.1mb 70f 78f
12:24 10 15 mph 1014.2mb 70f 79f
12:18 14 15 mph 1014.3mb 70f 78f
12:12 11 16 mph 1014.3mb 70f 78f
12:06 13 14 mph 1014.5mb 70f 78f
12:00 13 15 mph 1014.6mb 70f 78f
11:54 11 14 mph 1014.7mb 70f 78f
11:48 10 13 mph 1014.8mb 71f 78f
11:42 10 13 mph 1014.8mb 71f 78f
11:36 14 16 mph 1014.9mb 71f 77f
11:30 14 15 mph 1014.9mb 71f 78f
11:24 9 13 mph 1015mb 71f 77f
11:18 7 11 mph 1015.1mb 71f 77f
11:12 9 11 mph 1015.1mb 71f 77f
11:06 8 9 mph 1015.3mb 71f 77f
11:00 8 14 mph 1015.4mb 71f 76f
10:54 10 13 mph 1015.4mb 71f 76f
10:48 11 14 mph 1015.5mb 71f 76f
10:42 13 14 mph 1015.5mb 71f 76f
10:36 11 13 mph 1015.6mb 71f 75f
10:30 10 14 mph 1015.6mb 71f 75f
10:24 11 14 mph 1015.6mb 71f 75f
10:18 11 14 mph 1015.7mb 71f 75f
10:12 13 15 mph 1015.8mb 71f 74f
10:06 13 15 mph 1015.9mb 71f 74f
10:00 14 16 mph 1015.9mb 71f 74f
9:54 13 14 mph 1016mb 71f 74f
9:48 14 15 mph 1016mb 72f 73f
9:42 14
mph
1016.1mb 72f 74f
9:36 13 14 mph 1016.1mb 72f 74f
9:30 9 11 mph 1016.2mb 72f 73f
9:24 10 13 mph 1016.2mb 72f 73f
9:18 10 13 mph 1016.3mb 72f 73f
9:12 10 13 mph 1016.4mb 72f 73f
9:06 13 14 mph 1016.4mb 72f 72f
9:00 10 13 mph 1016.4mb 72f 72f
8:54 10 11 mph 1016.4mb 72f 72f
8:48 10 14 mph 1016.4mb 72f 71f
8:42 13 14 mph 1016.4mb 72f 71f
8:36 11 13 mph 1016.5mb 72f 71f
8:30 9 11 mph 1016.5mb 72f 71f
8:24 10 11 mph 1016.4mb 72f 70f
8:18 9 10 mph 1016.5mb 72f 70f
8:12 9 10 mph 1016.5mb 72f 70f
8:06 9 11 mph 1016.5mb 72f 70f
8:00 10 13 mph 1016.4mb 72f 69f
7:54 11 15 mph 1016.4mb 72f 69f
7:48 11 15 mph 1016.4mb 72f 69f
7:42 11 13 mph 1016.4mb 71f 69f
7:36 11
mph
1016.3mb 71f 69f
7:30 9 11 mph 1016.2mb 71f 69f
7:24 7 8 mph 1016.1mb 71f 69f
7:18 6 10 mph 1016.2mb 71f 68f
7:12 7 9 mph 1016.1mb 71f 68f
7:06 7 10 mph 1016.2mb 71f 67f
7:00 8 10 mph 1016.1mb 72f 67f
6:54 8 9 mph 1016mb 72f 67f
6:48 8 10 mph 1015.9mb 72f 66f
6:42 9 11 mph 1015.8mb 72f 66f
6:36 9 10 mph 1015.8mb 72f 66f
6:30 9 10 mph 1015.9mb 72f 66f
6:24 8 11 mph 1015.9mb 72f 67f
6:18 9 10 mph 1015.9mb 72f 66f
6:12 9 10 mph 1015.9mb 72f 66f
6:06 8 9 mph 1015.9mb 72f 66f
6:00 8 9 mph 1016mb 72f 66f
5:54 7 9 mph 1015.9mb 72f 67f
5:48 8 9 mph 1015.9mb 72f 67f
5:42 8 9 mph 1016mb 72f 67f
5:36 7 9 mph 1015.9mb 72f 66f
5:30 8 9 mph 1016mb 72f 66f
5:24 7 8 mph 1016mb 72f 66f
5:18 7 8 mph 1016.1mb 72f 67f
5:12 7 8 mph 1016.1mb 72f 67f
5:06 8 9 mph 1016.1mb 72f 67f
5:00 8 10 mph 1016.1mb 72f 67f
4:54 8 9 mph 1016.1mb 72f 67f
4:48 7 8 mph 1016mb 72f 67f
4:42 7 9 mph 1016mb 72f 66f
4:36 7 8 mph 1016mb 72f 66f
4:30 5 6 mph 1016.1mb 72f 66f
4:24 3 6 mph 1016mb 72f 66f
4:18 6 7 mph 1016.1mb 72f 66f
4:12 7 9 mph 1016.1mb 72f 66f
4:06 7 9 mph 1016.1mb 72f 67f
4:00 7 9 mph 1016.1mb 72f 67f
3:54 6 7 mph 1016.1mb 72f 67f
3:48 6 7 mph 1016.1mb 72f 66f
3:42 6 7 mph 1016.2mb 72f 66f
3:36 7 9 mph 1016.3mb 72f 66f
3:30 8 9 mph 1016.3mb 72f 66f
3:24 9 11 mph 1016.3mb 72f 66f
3:18 9 10 mph 1016.2mb 72f 66f
3:12 9 10 mph 1016.2mb 72f 66f
3:06 8 10 mph 1016.2mb 72f 66f
3:00 8 9 mph 1016.4mb 72f 66f
2:54 7 9 mph 1016.5mb 72f 66f
2:48 6 8 mph 1016.6mb 72f 66f
2:42 7 9 mph 1016.7mb 72f 66f
2:36 8 9 mph 1016.7mb 72f 66f
2:30 7 8 mph 1016.8mb 72f 67f
2:24 7 10 mph 1016.9mb 72f 67f
2:18 6 8 mph 1017mb 72f 67f
2:12 6 9 mph 1017mb 72f 67f
2:06 7 9 mph 1017mb 72f 67f
2:00 8 9 mph 1017mb 72f 67f
1:54 7 9 mph 1017.1mb 72f 67f
1:48 7 10 mph 1017.2mb 72f 67f
1:42 7 8 mph 1017.2mb 71f 67f
1:36 6 7 mph 1017.1mb 71f 67f
1:30 6 8 mph 1017.2mb 71f 67f
1:24 6 8 mph 1017.3mb 71f 67f
1:18 8 9 mph 1017.3mb 71f 67f
1:12 8 10 mph 1017.3mb 71f 67f
1:06 8 10 mph 1017.4mb 71f 67f
1:00 8 10 mph 1017.5mb 71f 68f
12:54 9 10 mph 1017.6mb 71f 68f
12:48 9 11 mph 1017.7mb 71f 68f
12:42 9 10 mph 1017.8mb 71f 68f
12:36 9 10 mph 1017.9mb 71f 68f
12:30 10 11 mph 1017.9mb 71f 67f
12:24 9 10 mph 1017.9mb 71f 67f
12:18 8 11 mph 1017.9mb 71f 67f
12:12 9 10 mph 1017.9mb 71f 67f
12:06 9 11 mph 1018mb 71f 67f
12:00 9 11 mph 1018mb 71f 67f
Di 08/26 11:54 10 11 mph 1018.1mb 71f 67f
11:48 10 11 mph 1018.3mb 71f 68f
11:42 10 11 mph 1018.2mb 72f 68f
11:36 10 13 mph 1018.3mb 72f 68f
11:30 9 11 mph 1018.3mb 72f 68f
11:24 10 14 mph 1018.3mb 72f 68f
11:18 10 13 mph 1018.4mb 72f 68f
11:12 9 11 mph 1018.5mb 72f 68f
11:06 9 11 mph 1018.6mb 72f 68f
11:00 9 11 mph 1018.7mb 72f 68f
10:54 10 11 mph 1018.6mb 72f 68f
10:48 10 11 mph 1018.7mb 72f 68f
10:42 10
mph
1018.7mb 72f 68f
10:36 8 9 mph 1018.7mb 72f 68f
10:30 8 9 mph 1018.8mb 72f 68f
10:24 8 9 mph 1018.8mb 72f 67f
10:18 8 10 mph 1018.7mb 73f 68f
10:12 9 10 mph 1018.8mb 73f 68f
10:06 9 10 mph 1018.9mb 73f 68f
10:00 9 10 mph 1018.9mb 73f 68f
9:54 8 10 mph 1018.9mb 73f 68f
9:48 9 10 mph 1018.8mb 73f 68f
9:42 9 10 mph 1018.8mb 73f 68f
9:36 10 11 mph 1018.7mb 73f 68f
9:30 9 10 mph 1018.7mb 73f 68f
9:24 9 10 mph 1018.8mb 73f 68f
9:18 9 11 mph 1018.8mb 73f 68f
9:12 9 10 mph 1018.9mb 73f 68f
9:06 9 10 mph 1018.8mb 73f 69f
9:00 9 10 mph 1018.8mb 73f 69f
8:54 9 10 mph 1018.8mb 74f 69f
8:48 9 11 mph 1018.7mb 74f 69f
8:42 10 13 mph 1018.8mb 74f 69f
8:36 11 13 mph 1018.6mb 74f 69f
8:30 11 13 mph 1018.5mb 74f 69f
8:24 11 14 mph 1018.5mb 74f 69f
8:18 11 13 mph 1018.5mb 74f 69f
8:12 10 13 mph 1018.5mb 74f 70f
8:06 11 13 mph 1018.5mb 74f 70f
8:00 11 13 mph 1018.5mb 74f 70f
7:54 10 14 mph 1018.4mb 74f 70f
7:48 11 14 mph 1018.4mb 74f 70f
7:42 11 13 mph 1018.4mb 74f 71f
7:36 10 14 mph 1018.2mb 74f 71f
7:30 11 14 mph 1018.3mb 74f 71f
7:24 13 14 mph 1018.3mb 74f 71f
7:18 13 15 mph 1018.4mb 74f 71f
7:12 14 15 mph 1018.4mb 74f 71f
7:06 14 16 mph 1018.3mb 74f 71f
7:00 15 17 mph 1018.2mb 74f 71f
6:54 16 18 mph 1018.2mb 74f 71f
6:48 17 20 mph 1018.1mb 74f 71f
6:42 17 18 mph 1018.2mb 74f 71f
6:36 16 18 mph 1018.2mb 74f 71f
6:30 16 18 mph 1018.1mb 74f 71f
6:24 15 16 mph 1018.2mb 74f 71f
6:18 15 16 mph 1018.1mb 74f 71f
6:12 16 18 mph 1018mb 74f 71f
6:06 16 18 mph 1018.1mb 74f 71f
6:00 17 20 mph 1018.2mb 74f 71f
5:54 17 20 mph 1018.2mb 74f 71f
5:48 18 20 mph 1018.4mb 74f 71f
5:42 17 21 mph 1018.5mb 74f 71f
5:36 20 22 mph 1018.3mb 74f 71f
5:30 20 21 mph 1018.4mb 74f 71f
5:24 20 21 mph 1018.5mb 74f 71f
5:18 18 21 mph 1018.6mb 74f 71f
5:12 18 21 mph 1018.7mb 74f 71f
5:06 18 21 mph 1018.8mb 74f 71f
5:00 18 21 mph 1018.8mb 74f 71f
4:54 18 22 mph 1018.9mb 74f 71f
4:48 17 21 mph 1018.9mb 74f 71f
4:42 18 22 mph 1019mb 74f 71f
4:30 18 21 mph 1019mb 74f 71f
4:24 17 20 mph 1019.1mb 74f 71f
4:18 20 22 mph 1019.1mb 74f 71f
4:12 18 21 mph 1019.2mb 74f 71f
4:06 17 20 mph 1019.3mb 74f 71f
4:00 17 20 mph 1019.4mb 74f 71f
3:54 20 21 mph 1019.4mb 74f 71f
3:48 18 21 mph 1019.5mb 74f 71f
3:42 20 21 mph 1019.5mb 73f 71f
3:36 18 21 mph 1019.6mb 73f 70f
3:30 20 21 mph 1019.6mb 73f 71f
3:24 17 21 mph 1019.7mb 73f 71f
3:18 18 21 mph 1019.7mb 73f 71f
3:12 18 21 mph 1019.7mb 73f 71f
3:06 20 21 mph 1019.9mb 73f 71f
3:00 20 22 mph 1019.9mb 73f 71f
2:54 18 21 mph 1019.9mb 73f 71f
2:48 20 21 mph 1019.9mb 73f 71f
2:42 17 21 mph 1020mb 73f 71f
2:36 20 21 mph 1019.9mb 73f 71f
2:30 20 22 mph 1019.9mb 73f 71f
2:24 20 22 mph 1020mb 73f 71f
2:18 20 22 mph 1020mb 73f 71f
2:12 21 22 mph 1020.1mb 73f 71f
2:06 20 21 mph 1020.1mb 73f 72f
2:00 18 21 mph 1020.1mb 73f 72f
1:54 18 21 mph 1020.1mb 73f 72f
1:48 18 21 mph 1020.1mb 73f 72f
1:42 18 20 mph 1020.1mb 73f 72f
1:36 17 18 mph 1020.1mb 73f 72f
1:30 16 17 mph 1020.1mb 73f 72f
1:24 15 17 mph 1020.2mb 73f 72f
1:18 14 15 mph 1020.2mb 73f 72f
1:12 13 14 mph 1020.3mb 73f 72f
1:06 13 14 mph 1020.4mb 73f 72f
1:00 13 15 mph 1020.5mb 73f 72f
12:54 14 15 mph 1020.5mb 73f 72f
12:48 14 15 mph 1020.5mb 72f 72f
12:42 14 15 mph 1020.6mb 72f 72f
12:36 14 15 mph 1020.5mb 71f 72f
12:30 15 16 mph 1020.6mb 71f 72f
12:24 14 15 mph 1020.7mb 71f 72f
12:18 11 13 mph 1020.7mb 71f 72f
12:12 11 13 mph 1020.6mb 71f 72f
12:06 10 11 mph 1020.6mb 71f 73f
12:00 10 13 mph 1020.7mb 71f 72f
11:54 10 11 mph 1020.7mb 70f 72f
11:48 10 11 mph 1020.7mb 70f 72f
11:42 10 11 mph 1020.8mb 70f 72f
11:36 10 11 mph 1020.8mb 70f 72f
11:30 11 13 mph 1020.9mb 71f 72f
11:24 10 11 mph 1021mb 71f 72f
11:18 9 10 mph 1021.1mb 70f 72f
11:12 9
mph
1021.2mb 71f 72f
11:06 7 8 mph 1021.3mb 71f 72f
11:00 7 8 mph 1021.3mb 71f 72f
10:54 7
mph
1021.3mb 71f 72f
10:48 7
mph
1021.4mb 71f 72f
10:42 7
mph
1021.3mb 71f 72f
10:36 6 7 mph 1021.2mb 71f 71f
10:30 7
mph
1021.3mb 71f 71f
10:24 6
mph
1021.3mb 72f 71f
10:18 6
mph
1021.3mb 72f 71f
10:12 5 6 mph 1021.3mb 72f 71f
10:06 6 7 mph 1021.3mb 72f 71f
10:00 6 8 mph 1021.3mb 72f 71f
9:54 7 8 mph 1021.4mb 72f 71f
9:48 8 9 mph 1021.4mb 72f 70f
9:42 8 9 mph 1021.4mb 72f 70f
9:36 7 8 mph 1021.5mb 72f 70f
9:30 7 8 mph 1021.4mb 72f 70f
9:24 7 8 mph 1021.5mb 72f 71f
9:18 6 8 mph 1021.5mb 72f 70f
9:12 7 8 mph 1021.6mb 72f 71f
9:06 8
mph
1021.6mb 72f 70f
9:00 7 8 mph 1021.6mb 72f 70f
8:54 8 9 mph 1021.6mb 73f 70f
8:48 6 7 mph 1021.6mb 73f 70f
8:42 6 7 mph 1021.6mb 73f 70f
8:36 6 8 mph 1021.5mb 73f 70f
8:30 6 7 mph 1021.6mb 73f 70f
8:24 6 7 mph 1021.5mb 73f 69f
8:18 6
mph
1021.5mb 73f 69f
8:12 5 6 mph 1021.6mb 73f 68f
8:06 5 6 mph 1021.5mb 73f 68f
8:00 6
mph
1021.4mb 73f 68f
7:54 6
mph
1021.4mb 73f 67f
7:48 6
mph
1021.4mb 73f 67f
7:42 5 6 mph 1021.4mb 73f 67f
7:36 5 6 mph 1021.3mb 73f 67f
7:24 6
mph
1021.2mb 73f 66f
7:18 6 7 mph 1021.2mb 73f 66f
7:12 6
mph
1021.1mb 73f 66f
7:06 6
mph
1021.1mb 73f 66f
7:00 6
mph
1021.1mb 73f 65f
6:54 6
mph
1021.1mb 73f 66f
6:48 5 6 mph 1021.1mb 73f 66f
6:42 5 6 mph 1021mb 73f 66f
6:36 5 6 mph 1021mb 73f 66f
6:30 5
mph
1020.9mb 73f 66f
6:24 5 6 mph 1020.9mb 73f 65f
6:18 5
mph
1020.8mb 73f 65f
6:12 5 6 mph 1020.8mb 73f 65f
6:06 5 6 mph 1020.8mb 73f 64f
6:00 5 6 mph 1020.8mb 73f 65f
5:54 5 6 mph 1020.8mb 73f 65f
5:48 3 5 mph 1020.6mb 73f 65f
5:42 3 5 mph 1020.6mb 73f 65f
5:36 3 5 mph 1020.5mb 73f 65f
5:30 3
mph
1020.5mb 73f 66f
5:24 2 3 mph 1020.4mb 73f 65f
5:18 3 5 mph 1020.4mb 73f 65f
5:12 3 5 mph 1020.4mb 73f 65f
5:06 3 5 mph 1020.3mb 73f 65f
5:00 3 5 mph 1020.3mb 73f 66f
4:54 3 5 mph 1020.3mb 73f 66f
4:48 3 5 mph 1020.3mb 73f 66f
4:42 3 5 mph 1020.3mb 73f 66f
4:36 5 6 mph 1020.2mb 73f 66f
4:24 5
mph
1020.2mb 73f 66f
4:18 3 5 mph 1020.2mb 73f 66f
4:12 3
mph
1020.1mb 73f 66f
4:06 2 3 mph 1020.1mb 73f 66f
4:00 3
mph
1020.2mb 73f 66f
3:54 3
mph
1020.3mb 73f 66f
3:48 3 5 mph 1020.3mb 73f 66f
3:42 3 5 mph 1020.3mb 73f 66f
3:36 3 5 mph 1020.3mb 73f 66f
3:30 5 6 mph 1020.3mb 73f 65f
3:24 5
mph
1020.3mb 73f 66f
3:18 5 6 mph 1020.3mb 73f 66f
3:12 5 6 mph 1020.3mb 73f 66f
3:06 5
mph
1020.2mb 73f 66f
3:00 5
mph
1020.1mb 73f 66f
2:54 3 5 mph 1020.1mb 73f 66f
2:48 5 6 mph 1020mb 73f 67f
2:42 5 6 mph 1020.1mb 73f 67f
2:36 5
mph
1020mb 73f 67f
2:30 5 6 mph 1020.1mb 73f 67f
2:24 5 6 mph 1020.2mb 73f 67f
2:18 6
mph
1020.2mb 73f 67f
2:12 5 6 mph 1020.2mb 73f 67f
2:06 5 6 mph 1020.2mb 73f 67f
2:00 6
mph
1020.2mb 73f 67f
1:54 6
mph
1020.2mb 73f 67f
1:48 6
mph
1020.3mb 73f 67f
1:42 5 6 mph 1020.3mb 73f 67f
1:36 5 6 mph 1020.3mb 73f 67f
1:30 5 6 mph 1020.3mb 73f 67f
1:24 5 6 mph 1020.4mb 73f 67f
1:18 6
mph
1020.5mb 72f 67f
1:12 6
mph
1020.6mb 72f 67f
1:06 5 6 mph 1020.6mb 72f 67f
1:00 5 6 mph 1020.6mb 72f 67f
12:54 6
mph
1020.6mb 71f 67f
12:48 5 6 mph 1020.6mb 71f 68f
12:42 5 6 mph 1020.6mb 71f 68f
12:36 5 6 mph 1020.5mb 71f 68f
12:30 5 6 mph 1020.5mb 71f 68f
12:24 5 6 mph 1020.5mb 71f 68f
12:18 5 6 mph 1020.5mb 71f 68f
12:12 5 6 mph 1020.4mb 71f 68f
12:06 5 6 mph 1020.5mb 71f 68f
12:00 5 6 mph 1020.5mb 71f 68f
Mo 08/25 11:54 5 6 mph 1020.6mb 71f 68f
11:48 6
mph
1020.6mb 71f 68f
11:30 5 6 mph 1020.4mb - -
11:24  -  mph 1020.4mb 72f -
11:18  -  mph 1020.5mb 72f 68f
11:12  -  mph 1020.4mb 72f 68f
11:06  -  mph - - 68f
11:00 6
mph
- - -
10:54 6 7 mph 1020.4mb - -
10:48  -  mph 1020.4mb - -
10:42  -  mph 1020.5mb - 69f
10:36  -  mph 1020.6mb - 69f
10:30 6 7 mph 1020.5mb 72f 69f
10:24 6 8 mph 1020.3mb 72f 69f
10:18 7 9 mph 1020.4mb 72f 69f
10:12 9 10 mph 1020.3mb 72f 69f
10:06 8 11 mph 1020.4mb 72f 69f
10:00 10 11 mph 1020.4mb 72f 69f
9:48 9 13 mph 1020.4mb 72f 69f
9:42 10 11 mph 1020.5mb 72f 69f
9:36 9 10 mph 1020.4mb 73f 69f
9:30 9 10 mph 1020.4mb 73f 69f
9:24 8 10 mph 1020.5mb 73f 69f
9:18 8 9 mph 1020.5mb 73f 69f
9:12 8 9 mph 1020.5mb 73f 69f
9:06 8 9 mph 1020.5mb 73f 69f
9:00 8 10 mph 1020.4mb 74f 69f
8:54 9 10 mph 1020.3mb 74f 69f
8:48 8 9 mph 1020.3mb 74f 69f
8:42 9 10 mph 1020.3mb 74f 70f
8:36 10 11 mph 1020.3mb 74f 70f
8:30 9 11 mph 1020.3mb 74f 70f
8:24 10 11 mph 1020.2mb 74f 70f
8:18 10 11 mph 1020.2mb 74f 70f
8:12 9 11 mph 1020.2mb 74f 70f
8:00 10 11 mph 1020.2mb 74f 70f
7:54 9 13 mph 1020.1mb 74f 70f
7:48 11 13 mph 1020.1mb 74f 70f
7:42 11 13 mph 1020mb 74f 70f
7:36 11 14 mph 1020mb 74f 70f
7:30 11 13 mph 1020mb 74f 71f
7:24 11 14 mph 1019.9mb 74f 71f
7:18 11 14 mph 1019.9mb 74f 71f
7:12 13 14 mph 1019.9mb 74f 71f
7:06 13
mph
1019.9mb 74f 71f
7:00 11 13 mph 1019.8mb 74f 71f
6:54 10 13 mph 1019.8mb 74f 71f
6:48 10 11 mph 1019.7mb 74f 71f
6:42 10 13 mph 1019.7mb 74f 71f
6:36 13 14 mph 1019.6mb 74f 71f
6:30 11 13 mph 1019.5mb 74f 71f
6:24 10 11 mph 1019.4mb 74f 71f
6:18 10 11 mph 1019.4mb 74f 71f
6:12 10 11 mph 1019.3mb 74f 72f
6:06 10 13 mph 1019.3mb 74f 72f
6:00 10 14 mph 1019.4mb 74f 72f
5:54 13 14 mph 1019.3mb 74f 72f
5:42 14 15 mph 1019.3mb 74f 72f
5:36 14 15 mph 1019.3mb 74f 72f
5:30 13 15 mph 1019.2mb 74f 72f
5:24 14
mph
1019.2mb 74f 72f
5:18 14 15 mph 1019.2mb 74f 72f
5:12 14 15 mph 1019.2mb 74f 72f
5:06 14 15 mph 1019.1mb 74f 72f
4:54 15 16 mph 1019.1mb 74f 72f
4:42 15 17 mph 1019mb 74f 72f
4:36 15 17 mph 1019.1mb 74f 73f
4:30 15 16 mph 1019mb 74f 72f
4:24 16 17 mph 1019mb 74f 73f
4:18 15 16 mph 1019.1mb 74f 73f
4:12 14 15 mph 1019.1mb 74f 73f
4:06 14 15 mph 1019mb 74f 73f
3:54 14 16 mph 1019mb 74f 74f
3:42 14 16 mph 1019mb 74f 74f
3:36 15 16 mph 1019mb 74f 74f
3:30 15 16 mph 1019.1mb 74f 74f
3:24 15 16 mph 1019mb 74f 74f
3:18 15 17 mph 1019mb 74f 73f
3:12 16 17 mph 1019.1mb 74f 73f
3:06 16 17 mph 1019.1mb 73f 74f
3:00 16 17 mph 1019.1mb 73f 74f
2:54 16 18 mph 1019.2mb 72f 74f
2:48 17 18 mph 1019.2mb 73f 74f
2:42 9 15 mph 1019.3mb 73f 77f
2:36 5 6 mph 1019.3mb 73f 80f
2:30 5
mph
1019.3mb 73f 80f
2:24 5
mph
1019.4mb 72f 80f
2:18 5
mph
1019.4mb 72f 80f
2:12 5 6 mph - - -
2:06 5 6 mph 1019.5mb 72f 79f
2:00 6
mph
1019.6mb 72f 79f
1:48 5
mph
1019.7mb 72f 79f
1:42 5
mph
1019.7mb 72f 78f
1:36 5 6 mph 1019.8mb 72f 78f
1:30 5 6 mph 1019.8mb 72f 78f
1:24 5
mph
1019.7mb 72f 78f
1:18 2 3 mph 1019.7mb 72f 79f
1:12 2 3 mph 1019.8mb 72f 79f
1:06 3 5 mph 1019.8mb 72f 78f
1:00 3 6 mph 1019.8mb 72f 78f
12:54 6 7 mph 1019.9mb 71f 78f
12:48 5 6 mph 1020mb 71f 77f
12:42 5 6 mph 1020.1mb 71f 78f
12:36 5 6 mph 1020.2mb 71f 78f
12:30 5 7 mph 1020.2mb 71f 78f
12:24 5 6 mph 1020.3mb 71f 78f
12:18 6 7 mph 1020.3mb 71f 78f
12:12 7
mph
1020.4mb 71f 78f
12:06 7 8 mph 1020.5mb 71f 78f
12:00 8 9 mph 1020.5mb 71f 79f
11:54 7 9 mph 1020.4mb 71f 78f
11:48 7 8 mph 1020.4mb 71f 78f
11:42 7 9 mph 1020.5mb 71f 78f
11:36 7 9 mph 1020.5mb 71f 77f
11:30 7 9 mph 1020.6mb 71f 77f
11:24 7 11 mph 1020.6mb 71f 76f
11:18 7 8 mph 1020.6mb 71f 75f
11:12 8 9 mph 1020.7mb 71f 75f
11:06 5 6 mph 1020.7mb 71f 75f
11:00 2 3 mph 1020.7mb 71f 74f
10:54 3 5 mph 1020.7mb 71f 73f
10:48 5
mph
1020.7mb 71f 73f
10:42 3 5 mph 1020.7mb 71f 73f
10:36 3 5 mph 1020.7mb 71f 73f
10:24 6 7 mph 1020.6mb 71f 72f
10:18 6 7 mph 1020.6mb 72f 72f
10:12 6 7 mph 1020.6mb 72f 72f
10:06 5 6 mph 1020.6mb 72f 71f
10:00 5 6 mph 1020.5mb 72f 71f
9:54 5 6 mph 1020.6mb 72f 71f
9:48 6
mph
1020.5mb 72f 71f
9:42 3 5 mph 1020.5mb 72f 71f
9:36 5 6 mph 1020.3mb 72f 71f
9:30 6
mph
1020.3mb 72f 70f
9:24 6 7 mph 1020.3mb 72f 70f
9:18 6
mph
1020.4mb 72f 70f
9:12 6 7 mph 1020.3mb 72f 70f
9:06 5
mph
1020.3mb 72f 70f
9:00 3 6 mph 1020.3mb 72f 70f
8:54 3 5 mph 1020.2mb 72f 70f
8:48 2 3 mph 1020.2mb 72f 71f
8:42 3 5 mph 1020.3mb 72f 70f
8:36 2 3 mph 1020.2mb 72f 71f
8:30  -  2 mph 1020.1mb 72f 71f
8:24 1 2 mph 1020.2mb 72f 70f
8:18 1 2 mph 1020.2mb 72f 70f
8:12 1 3 mph 1020.2mb 72f 69f
8:06 2
mph
1020.2mb 72f 69f
8:00 1 2 mph 1020.1mb 72f 70f
7:54 1 3 mph 1020.1mb 72f 70f
7:48 2 3 mph 1020.1mb 72f 69f
7:42 2 3 mph 1020mb 72f 69f
7:36 1 2 mph 1020mb 72f 68f
7:30 2 3 mph 1020mb 72f 67f
7:24 2 3 mph 1019.9mb 72f 67f
7:18 2 3 mph 1019.9mb 72f 67f
7:12 2 3 mph 1019.8mb 72f 68f
7:06 1 2 mph 1019.8mb 72f 68f
7:00  -  2 mph 1019.8mb 72f 68f
6:54  -  2 mph 1019.8mb 72f 68f
6:48 1
mph
1019.7mb 72f 67f
6:42  -  2 mph 1019.8mb 72f 67f
6:36 1 2 mph 1019.7mb 72f 66f
6:30 1 2 mph 1019.8mb 72f 66f
6:24  -  2 mph 1019.9mb 72f 65f
6:18 1 2 mph 1019.9mb 72f 65f
6:12 2 3 mph 1019.8mb 72f 65f
6:06 3 5 mph 1019.7mb 72f 65f
6:00 3 5 mph 1019.6mb 72f 65f
5:54 3 5 mph 1019.6mb 72f 65f
5:48 2 3 mph 1019.6mb 72f 65f
5:42 2
mph
1019.6mb 72f 65f
5:36  -  2 mph 1019.5mb 72f 65f
5:30 1 2 mph 1019.4mb 72f 65f
5:24 2 3 mph 1019.4mb 72f 65f
5:18 2 3 mph 1019.4mb 72f 65f
5:12 2 3 mph 1019.3mb 72f 65f
5:06 2 3 mph 1019.3mb 72f 65f
5:00 2
mph
1019.2mb 72f 65f
4:54  -  1 mph 1019.2mb 72f 65f
4:48  -  2 mph 1019.2mb 72f 65f
4:42  -  2 mph 1019.2mb 72f 65f
4:36 1 3 mph 1019.2mb 72f 65f
4:30 2 3 mph 1019.2mb 72f 65f
4:24 1 2 mph 1019.2mb 72f 65f
4:18  -  2 mph 1019.2mb 72f 65f
4:12 1 2 mph 1019.3mb 72f 65f
4:06 2
mph
1019.3mb 72f 65f
4:00 2
mph
1019.3mb 72f 65f
3:54 2 3 mph 1019.4mb 72f 65f
3:48 1 2 mph 1019.4mb 72f 65f
3:42 1 2 mph 1019.5mb 72f 65f
3:36  -  1 mph 1019.5mb 72f 65f
3:30  -  1 mph 1019.5mb 72f 65f
3:24  -  1 mph 1019.4mb 72f 65f
3:18  -  1 mph 1019.4mb 72f 64f
3:12  -  1 mph 1019.4mb 72f 64f
3:06  -  1 mph 1019.5mb 72f 64f
3:00 2 5 mph 1019.5mb 72f 64f
2:54 2 5 mph 1019.5mb 72f 64f
2:48 2 3 mph 1019.5mb 72f 65f
2:42 1 2 mph 1019.6mb 72f 64f
2:36 2 3 mph 1019.6mb 72f 65f
2:30 2 3 mph 1019.6mb 72f 65f
2:24 2 5 mph 1019.6mb 72f 65f
2:18 2 3 mph 1019.7mb 72f 65f
2:12 2
mph
1019.6mb 72f 64f
2:06 1 2 mph 1019.7mb 72f 64f
2:00 1 2 mph 1019.8mb 72f 64f
1:54 2
mph
1019.7mb 72f 64f
1:48 2 3 mph 1019.7mb 72f 64f
1:42 2 3 mph 1019.7mb 72f 64f
1:36 2 3 mph 1019.7mb 72f 64f
1:30 3 5 mph 1019.7mb 72f 64f
1:24 3 5 mph 1019.8mb 72f 64f
1:18 5
mph
1019.8mb 72f 64f
1:12 3 5 mph 1019.8mb 72f 64f
1:06 3 5 mph 1019.9mb 72f 64f
1:00 5 6 mph 1019.9mb 72f 64f
12:54 5 6 mph 1019.8mb 72f 64f
12:48 3 5 mph 1019.9mb 72f 64f
12:42 3 5 mph 1019.9mb 72f 65f
12:36 3 5 mph 1020mb 72f 65f
12:30  -  2 mph 1020mb 72f 65f
12:24 2 5 mph 1020.1mb 72f 65f
12:18 5 6 mph 1020.1mb 72f 64f
12:12 3 5 mph 1020.2mb 71f 64f
12:06 3 6 mph 1020.2mb 71f 64f
12:00 3 6 mph 1020.1mb 71f 65f
So 08/24 11:54 3 5 mph 1020mb 71f 64f
11:48 5 6 mph 1019.9mb 71f 64f
11:42 6 7 mph 1019.9mb 71f 64f
11:36 5 8 mph 1019.9mb 71f 65f
11:30 5 6 mph 1019.9mb 71f 65f
11:24 3 6 mph 1019.8mb 71f 65f
11:18 6 8 mph 1019.8mb 71f 65f
11:12 7 8 mph 1019.9mb 71f 65f
11:06 7 8 mph 1019.9mb 71f 65f
11:00 7 8 mph 1019.9mb 71f 65f
10:54 7 8 mph 1019.9mb 71f 65f
10:48 7
mph
1019.8mb 72f 65f
10:42 7
mph
1019.9mb 72f 65f
10:36 6 7 mph 1020mb 72f 65f
10:30 6 7 mph 1020mb 72f 65f
10:24 6 7 mph 1020.1mb 72f 65f
10:18 6 7 mph 1020.2mb 72f 65f
10:12 6 8 mph 1020.2mb 72f 65f
10:06 7 8 mph 1020.2mb 72f 65f
10:00 7
mph
1020.1mb 72f 66f
9:54 7 8 mph 1020.2mb 72f 66f
9:48 8 9 mph 1020.2mb 72f 66f
9:42 7 8 mph 1020.2mb 72f 66f
9:36 7 8 mph 1020.1mb 73f 66f
9:30 7
mph
1020.1mb 73f 67f
9:24 6 8 mph 1020.2mb 73f 67f
9:18 7 8 mph 1020.1mb 73f 67f
9:12 7 8 mph 1020.2mb 73f 67f
9:06 7 8 mph 1020.1mb 73f 67f
9:00 7 8 mph 1020mb 73f 67f
8:54 7 8 mph 1019.9mb 73f 68f
8:48 6 7 mph 1020mb 73f 68f
8:42 6 7 mph 1019.9mb 73f 68f
8:36 7 8 mph 1019.9mb 73f 68f
8:30 7 8 mph 1019.9mb 73f 68f
8:24 7 9 mph 1019.9mb 73f 68f
8:18 7 9 mph 1019.8mb 73f 68f
8:12 8 9 mph 1019.7mb 73f 68f
8:06 8
mph
1019.8mb 73f 68f
8:00 8 9 mph 1019.7mb 73f 69f
7:54 9 10 mph 1019.7mb 73f 69f
7:48 8 10 mph 1019.7mb 73f 69f
7:42 9 10 mph 1019.7mb 73f 69f
7:36 9 10 mph 1019.6mb 73f 69f
7:24 11 14 mph 1019.6mb 73f 70f
7:18 8 9 mph 1019.6mb 73f 71f
7:12 8 9 mph 1019.6mb 73f 72f
7:06 8 9 mph 1019.5mb 73f 72f
7:00 7 9 mph 1019.6mb 73f 72f
6:48 8 10 mph 1019.6mb 73f 72f
6:42 9 10 mph 1019.5mb 73f 72f
6:36 8 9 mph 1019.4mb 73f 72f
6:30 8 10 mph 1019.3mb 73f 73f
6:24 9 10 mph 1019.3mb 73f 73f
6:18 9 10 mph 1019.2mb 73f 73f
6:12 9 10 mph 1019.2mb 73f 73f
6:06 10 11 mph 1019.2mb 73f 73f
6:00 10 13 mph 1019.1mb 73f 74f
5:54 7 9 mph 1019.1mb 73f 74f
5:48 5 6 mph 1019.1mb 73f 75f
5:42 6 7 mph 1019.1mb 72f 75f
5:36 5 6 mph 1019.1mb 72f 75f
5:30 6 7 mph 1019.1mb 72f 75f
5:24 5 7 mph 1019.1mb 73f 75f
5:18 6 7 mph 1019.1mb 73f 75f
5:12 6 7 mph 1019.2mb 73f 75f
5:06 7 8 mph 1019.2mb 72f 75f
5:00 6 8 mph 1019.2mb 72f 75f
4:54 7 8 mph 1019.2mb 72f 75f
4:48 7 9 mph 1019.2mb 72f 75f
4:42 7 8 mph 1019.1mb 72f 75f
4:36 7 8 mph 1019.1mb 72f 75f
4:30 6
mph
1019.1mb 72f 75f
4:24 5 6 mph 1019.1mb 72f 75f
4:18 6 9 mph 1019.2mb 72f 75f
4:12 6 8 mph 1019.2mb 72f 75f
4:06 8 9 mph 1019.3mb 72f 75f
4:00 6 8 mph 1019.4mb 72f 75f
3:54 6 9 mph 1019.3mb 72f 75f
3:48 8 10 mph 1019.4mb 72f 75f
3:42 9 10 mph 1019.4mb 72f 75f
3:36 9 10 mph 1019.4mb 72f 74f
3:30 7 8 mph 1019.3mb 72f 74f
3:24 7 10 mph 1019.4mb 72f 74f
3:18 10 15 mph 1019.4mb 72f 74f
3:12 11 15 mph 1019.5mb 72f 74f
3:06 13 15 mph 1019.5mb 73f 74f
3:00 10 13 mph 1019.5mb 72f 74f
2:54 10 13 mph 1019.6mb 72f 74f
2:48 10 13 mph 1019.6mb 72f 74f
2:42 11 15 mph 1019.6mb 72f 74f
2:36 11 15 mph 1019.7mb 71f 74f
2:30 11 14 mph 1019.7mb 71f 74f
2:24 11 14 mph 1019.7mb 71f 74f
2:18 9 10 mph 1019.7mb 71f 74f
2:12 9 14 mph 1019.7mb 71f 74f
2:06 13 14 mph 1019.8mb 71f 74f
2:00 10 11 mph 1019.8mb 72f 74f
1:54 9 11 mph 1019.7mb 71f 74f
1:48 10 13 mph 1019.8mb 71f 73f
1:42 10 11 mph 1019.7mb 71f 73f
1:36 8 13 mph 1019.8mb 71f 73f
1:30 10 13 mph 1019.7mb 71f 73f
1:24 7 8 mph 1019.8mb 71f 73f
1:18 8 9 mph 1019.8mb 71f 73f
1:12 8 9 mph 1019.9mb 71f 73f
1:06 7 9 mph 1019.9mb 71f 72f
1:00 7 8 mph 1019.9mb 71f 72f
12:54 3 5 mph 1019.9mb 71f 72f
12:48 5
mph
1020mb 71f 72f
12:42 3 5 mph 1020mb 71f 72f
12:36 5 8 mph 1020mb 71f 72f
12:30 5 6 mph 1020mb 71f 72f
12:24 5 6 mph 1020mb 71f 71f
12:18 5 7 mph 1020mb 71f 71f
12:12 5 8 mph 1020mb 71f 71f
12:06 6 10 mph 1020.1mb 71f 71f
12:00 8 10 mph 1020.1mb 71f 71f
11:54 6 10 mph 1020.1mb 71f 71f
11:48 8 10 mph 1020.1mb 71f 71f
11:42 8 9 mph 1020.1mb 71f 71f
11:36 3 9 mph 1020.2mb 70f 70f
11:30 7 9 mph 1020.1mb 70f 70f
11:24 7 11 mph 1020.2mb 70f 70f
11:18 7 9 mph 1020.2mb 70f 70f
11:12 7 13 mph 1020.2mb 70f 69f
11:06 8 11 mph 1020.2mb 70f 69f
11:00 8 10 mph 1020.1mb 71f 69f
10:54 9 13 mph 1020.2mb 71f 69f
10:48 9 11 mph 1020.2mb 71f 69f
10:42 8 10 mph 1020.3mb 71f 69f
10:36 7 9 mph 1020.3mb 71f 69f
10:30 9 11 mph 1020.2mb 71f 69f
10:24 8 9 mph 1020.2mb 71f 68f
10:18 8 10 mph 1020.3mb 71f 68f
10:12 7 10 mph 1020.2mb 71f 68f
10:06 7 9 mph 1020.3mb 71f 68f
10:00 8 10 mph 1020.3mb 71f 68f
9:54 10 13 mph 1020.3mb 71f 67f
9:48 9 11 mph 1020.3mb 71f 68f
9:42 9 11 mph 1020.2mb 71f 68f
9:36 9 10 mph 1020.3mb 71f 67f
9:30 10 11 mph 1020.3mb 71f 67f
9:24 8 10 mph 1020.2mb 71f 67f
9:18 9 11 mph 1020.1mb 71f 67f
9:12 9 11 mph 1020.1mb 71f 67f
9:06 10 13 mph 1020mb 71f 67f
9:00 10 11 mph 1019.9mb 71f 67f
8:54 9 11 mph 1019.9mb 71f 67f
8:48 9 11 mph 1019.9mb 71f 67f
8:42 9 11 mph 1019.9mb 71f 67f
8:36 9 11 mph 1019.8mb 71f 67f
8:30 9 13 mph 1019.8mb 71f 66f
8:24 9 10 mph 1019.7mb 71f 66f
8:18 8 10 mph 1019.8mb 71f 66f
8:12 9 10 mph 1019.8mb 71f 66f
8:06 8 11 mph 1019.8mb 71f 66f
8:00 9 11 mph 1019.8mb 71f 66f
7:54 8 10 mph 1019.8mb 71f 65f
7:48 8 10 mph 1019.8mb 71f 65f
7:42 8 9 mph 1019.8mb 71f 65f
7:36 8 9 mph 1019.7mb 71f 65f
7:30 7 8 mph 1019.8mb 71f 64f
7:24 7 8 mph 1019.8mb 71f 64f
7:18 6 7 mph 1019.8mb 71f 63f
7:12 5 7 mph 1019.8mb 71f 63f
7:06 5 7 mph 1019.8mb 71f 62f
7:00 5 6 mph 1019.7mb 71f 62f
6:54 5 6 mph 1019.7mb 71f 62f
6:48 6
mph
1019.5mb 71f 62f
6:42 6 7 mph 1019.5mb 71f 62f
6:36 5 7 mph 1019.5mb 71f 61f
6:30 6 7 mph 1019.5mb 71f 61f
6:24 6 7 mph 1019.5mb 71f 61f
6:18 6 7 mph 1019.5mb 71f 61f
6:12 5 6 mph 1019.4mb 71f 61f
6:06 6 7 mph 1019.4mb 71f 61f
6:00 5 6 mph 1019.4mb 71f 61f
5:54 5 6 mph 1019.4mb 71f 61f
5:48 6
mph
1019.4mb 71f 60f
5:42 6 7 mph 1019.3mb 71f 60f
5:36 6 7 mph 1019.2mb 71f 60f
5:30 6 7 mph 1019.3mb 71f 60f
5:24 6 7 mph 1019.2mb 71f 60f
5:18 6 7 mph 1019.1mb 71f 60f
5:12 6 7 mph 1019.1mb 71f 60f
5:06 7 8 mph 1019.1mb 71f 60f
5:00 6 7 mph 1019.1mb 71f 60f
4:54 5 6 mph 1019.1mb 71f 60f
4:48 5 6 mph 1019.1mb 71f 60f
4:42 3 5 mph 1019.2mb 71f 59f
4:36 3 5 mph 1019.2mb 71f 59f
4:30 5 6 mph 1019.1mb 71f 60f
4:24 5 6 mph 1019.1mb 71f 60f
4:18 3 6 mph 1019.1mb 71f 59f
4:12 5 6 mph 1019.1mb 71f 59f
4:06 5 6 mph 1019.1mb 71f 59f
4:00 6 7 mph 1019.1mb 71f 59f
3:54 6
mph
1019.1mb 71f 59f
3:48 5 6 mph 1019.2mb 71f 59f
3:42 6
mph
1019.1mb 71f 59f
3:36 6
mph
1019.2mb 71f 59f
3:30 5 6 mph 1019.2mb 71f 59f
3:24 5 6 mph 1019.2mb 71f 59f
3:18 6 7 mph 1019.3mb 71f 59f
3:12 6 7 mph 1019.2mb 71f 59f
3:06 6 7 mph 1019.1mb 71f 59f
3:00 6 8 mph 1019.1mb 71f 59f
2:54 7 8 mph 1019.2mb 71f 59f
2:48 7 8 mph 1019.2mb 71f 59f
2:42 7 8 mph 1019.2mb 71f 59f
2:36 7 8 mph 1019.2mb 71f 59f
2:30 6 7 mph 1019.3mb 71f 59f
2:24 6 7 mph 1019.3mb 71f 59f
2:18 6 7 mph 1019.4mb 71f 59f
2:12 6 7 mph 1019.4mb 71f 59f